| time (UTC) | temp F | wind direction | speed MPH | gust MPH | rain 1hr in | rain 24hr in | rain mn in | humidity % | barometer mb |
| 20260504025630 | 55 | 126 | 5.0 | 7.0 | 0.00 | 0.00 | 0.00 | 60 | 1019.7 |
| 20260504025127 | 55 | 166 | 0.0 | 5.0 | 0.00 | 0.00 | 0.00 | 60 | 1019.7 |
| 20260504024636 | 55 | 155 | 0.0 | 7.0 | 0.00 | 0.00 | 0.00 | 60 | 1019.7 |
| 20260504024130 | 55 | 167 | 0.0 | 7.0 | 0.00 | 0.00 | 0.00 | 60 | 1019.8 |
| 20260504023628 | 55 | 156 | 0.0 | 7.0 | 0.00 | 0.00 | 0.00 | 60 | 1019.8 |
| 20260504023127 | 55 | 154 | 1.0 | 6.0 | 0.00 | 0.00 | 0.00 | 60 | 1019.8 |
| 20260504022627 | 55 | 168 | 2.0 | 7.0 | 0.00 | 0.00 | 0.00 | 60 | 1019.8 |
| 20260504022127 | 55 | 130 | 3.0 | 5.0 | 0.00 | 0.00 | 0.00 | 60 | 1019.8 |
| 20260504021627 | 55 | 170 | 0.0 | 5.0 | 0.00 | 0.00 | 0.00 | 60 | 1019.8 |
| 20260504021130 | 55 | 125 | 1.0 | 4.0 | 0.00 | 0.00 | 0.00 | 60 | 1019.8 |
| 20260504020630 | 55 | 148 | 3.0 | 5.0 | 0.00 | 0.00 | 0.00 | 60 | 1019.7 |
| 20260504020125 | 55 | 166 | 1.0 | 4.0 | 0.00 | 0.00 | 0.00 | 60 | 1019.7 |
| 20260504015631 | 55 | 114 | 3.0 | 5.0 | 0.00 | 0.00 | 0.00 | 60 | 1019.6 |
| 20260504015124 | 55 | 162 | 3.0 | 5.0 | 0.00 | 0.00 | 0.00 | 60 | 1019.6 |
| 20260504014625 | 55 | 190 | 3.0 | 5.0 | 0.00 | 0.00 | 0.00 | 60 | 1019.5 |
| 20260504014128 | 55 | 164 | 1.0 | 5.0 | 0.00 | 0.00 | 0.00 | 60 | 1019.5 |
| 20260504013625 | 55 | 159 | 1.0 | 6.0 | 0.00 | 0.00 | 0.00 | 60 | 1019.4 |
| 20260504013131 | 55 | 176 | 0.0 | 5.0 | 0.00 | 0.00 | 0.00 | 60 | 1019.4 |
| 20260504012628 | 56 | 157 | 2.0 | 6.0 | 0.00 | 0.00 | 0.00 | 60 | 1019.4 |
| 20260504012125 | 56 | 137 | 3.0 | 4.0 | 0.00 | 0.00 | 0.00 | 60 | 1019.4 |
| 20260504011625 | 56 | 120 | 0.0 | 6.0 | 0.00 | 0.00 | 0.00 | 60 | 1019.5 |
| 20260504011125 | 56 | 140 | 6.0 | 7.0 | 0.00 | 0.00 | 0.00 | 60 | 1019.5 |
| 20260504010625 | 56 | 152 | 0.0 | 8.0 | 0.00 | 0.00 | 0.00 | 60 | 1019.6 |
| 20260504010128 | 55 | 143 | 0.0 | 8.0 | 0.00 | 0.00 | 0.00 | 60 | 1019.7 |
| 20260504005628 | 55 | 136 | 5.0 | 7.0 | 0.00 | 0.00 | 0.00 | 60 | 1019.7 |
| 20260504005125 | 55 | 156 | 0.0 | 6.0 | 0.00 | 0.00 | 0.00 | 60 | 1019.8 |
| 20260504004631 | 56 | 143 | 1.0 | 6.0 | 0.00 | 0.00 | 0.00 | 61 | 1019.8 |
| 20260504004125 | 56 | 161 | 0.0 | 7.0 | 0.00 | 0.00 | 0.00 | 61 | 1019.7 |
| 20260504003625 | 56 | 137 | 3.0 | 5.0 | 0.00 | 0.00 | 0.00 | 61 | 1019.8 |
| 20260504003125 | 56 | 169 | 3.0 | 6.0 | 0.00 | 0.00 | 0.00 | 61 | 1019.8 |
| 20260504002628 | 56 | 134 | 1.0 | 5.0 | 0.00 | 0.00 | 0.00 | 62 | 1019.8 |
| 20260504002128 | 55 | 136 | 3.0 | 5.0 | 0.00 | 0.00 | 0.00 | 62 | 1019.8 |
| 20260504001625 | 55 | 152 | 1.0 | 7.0 | 0.00 | 0.00 | 0.00 | 63 | 1019.8 |
| 20260504001131 | 56 | 157 | 3.0 | 6.0 | 0.00 | 0.00 | 0.00 | 63 | 1019.9 |
| 20260504000625 | 56 | 175 | 4.0 | 5.0 | 0.00 | 0.00 | 0.00 | 63 | 1019.9 |
| 20260504000128 | 56 | 150 | 2.0 | 6.0 | 0.00 | 0.00 | 0.00 | 63 | 1020.0 |
| 20260503235625 | 56 | 161 | 2.0 | 7.0 | 0.00 | 0.00 | 0.00 | 63 | 1020.0 |
| 20260503235128 | 56 | 167 | 6.0 | 7.0 | 0.00 | 0.00 | 0.00 | 63 | 1020.0 |
| 20260503234625 | 56 | 153 | 6.0 | 6.0 | 0.00 | 0.00 | 0.00 | 63 | 1020.1 |
| 20260503234126 | 56 | 152 | 4.0 | 5.0 | 0.00 | 0.00 | 0.00 | 63 | 1020.1 |
| 20260503233625 | 56 | 132 | 1.0 | 4.0 | 0.00 | 0.00 | 0.00 | 64 | 1020.2 |
| 20260503233125 | 56 | 157 | 5.0 | 6.0 | 0.00 | 0.00 | 0.00 | 64 | 1020.2 |
| 20260503232628 | 56 | 123 | 2.0 | 5.0 | 0.00 | 0.00 | 0.00 | 64 | 1020.2 |
| 20260503232128 | 56 | 178 | 0.0 | 5.0 | 0.00 | 0.00 | 0.00 | 65 | 1020.2 |
| 20260503231628 | 56 | 182 | 1.0 | 6.0 | 0.00 | 0.00 | 0.00 | 65 | 1020.2 |
| 20260503231128 | 56 | 136 | 4.0 | 7.0 | 0.00 | 0.00 | 0.00 | 66 | 1020.2 |
| 20260503230628 | 56 | 161 | 0.0 | 7.0 | 0.00 | 0.00 | 0.00 | 66 | 1020.3 |
| 20260503230125 | 56 | 119 | 5.0 | 7.0 | 0.00 | 0.00 | 0.00 | 66 | 1020.4 |
| 20260503225631 | 57 | 138 | 2.0 | 7.0 | 0.00 | 0.00 | 0.00 | 66 | 1020.5 |
| 20260503225128 | 57 | 202 | 0.0 | 6.0 | 0.00 | 0.00 | 0.00 | 66 | 1020.5 |
| 20260503224625 | 57 | 170 | 3.0 | 6.0 | 0.00 | 0.00 | 0.00 | 67 | 1020.6 |
| 20260503224125 | 57 | 150 | 3.0 | 6.0 | 0.00 | 0.00 | 0.00 | 67 | 1020.6 |
| 20260503223625 | 57 | 171 | 2.0 | 4.0 | 0.00 | 0.00 | 0.00 | 67 | 1020.6 |
| 20260503223125 | 57 | 150 | 4.0 | 5.0 | 0.00 | 0.00 | 0.00 | 68 | 1020.6 |
| 20260503222628 | 57 | 166 | 3.0 | 5.0 | 0.00 | 0.00 | 0.00 | 68 | 1020.7 |
| 20260503222128 | 57 | 161 | 0.0 | 6.0 | 0.00 | 0.00 | 0.00 | 68 | 1020.7 |
| 20260503221625 | 57 | 164 | 1.0 | 6.0 | 0.00 | 0.00 | 0.00 | 68 | 1020.6 |
| 20260503221125 | 57 | 128 | 4.0 | 7.0 | 0.00 | 0.00 | 0.00 | 69 | 1020.6 |
| 20260503220632 | 57 | 161 | 4.0 | 6.0 | 0.00 | 0.00 | 0.00 | 69 | 1020.6 |
| 20260503220128 | 57 | 163 | 0.0 | 4.0 | 0.00 | 0.00 | 0.00 | 69 | 1020.5 |
| 20260503215625 | 57 | 161 | 3.0 | 6.0 | 0.00 | 0.00 | 0.00 | 69 | 1020.5 |
| 20260503215125 | 57 | 112 | 1.0 | 7.0 | 0.00 | 0.00 | 0.00 | 70 | 1020.5 |
| 20260503214628 | 57 | 129 | 3.0 | 6.0 | 0.00 | 0.00 | 0.00 | 70 | 1020.6 |
| 20260503214125 | 58 | 157 | 4.0 | 6.0 | 0.00 | 0.00 | 0.00 | 70 | 1020.5 |
| 20260503213631 | 58 | 165 | 4.0 | 7.0 | 0.00 | 0.00 | 0.00 | 70 | 1020.5 |
| 20260503213134 | 58 | 116 | 0.0 | 6.0 | 0.00 | 0.00 | 0.00 | 70 | 1020.5 |
| 20260503212628 | 58 | 161 | 1.0 | 6.0 | 0.00 | 0.00 | 0.00 | 71 | 1020.5 |
| 20260503212128 | 58 | 167 | 5.0 | 7.0 | 0.00 | 0.00 | 0.00 | 70 | 1020.5 |
| 20260503211625 | 58 | 165 | 4.0 | 6.0 | 0.00 | 0.00 | 0.00 | 71 | 1020.6 |
| 20260503211125 | 58 | 159 | 3.0 | 7.0 | 0.00 | 0.00 | 0.00 | 71 | 1020.6 |
| 20260503210625 | 58 | 150 | 5.0 | 7.0 | 0.00 | 0.00 | 0.00 | 71 | 1020.7 |
| 20260503210131 | 58 | 167 | 2.0 | 7.0 | 0.00 | 0.00 | 0.00 | 71 | 1020.7 |
| 20260503205629 | 58 | 127 | 2.0 | 7.0 | 0.00 | 0.00 | 0.00 | 72 | 1020.7 |
| 20260503205128 | 58 | 169 | 2.0 | 5.0 | 0.00 | 0.00 | 0.00 | 72 | 1020.7 |
| 20260503204625 | 58 | 156 | 2.0 | 5.0 | 0.00 | 0.00 | 0.00 | 73 | 1020.7 |
| 20260503204134 | 58 | 132 | 3.0 | 6.0 | 0.00 | 0.00 | 0.00 | 73 | 1020.7 |
| 20260503203628 | 58 | 150 | 4.0 | 6.0 | 0.00 | 0.00 | 0.00 | 73 | 1020.7 |
| 20260503203125 | 58 | 144 | 4.0 | 7.0 | 0.00 | 0.00 | 0.00 | 74 | 1020.7 |
| 20260503202628 | 58 | 130 | 3.0 | 6.0 | 0.00 | 0.00 | 0.00 | 74 | 1020.7 |
| 20260503202125 | 59 | 123 | 5.0 | 7.0 | 0.00 | 0.00 | 0.00 | 73 | 1020.7 |
| 20260503201625 | 59 | 163 | 3.0 | 6.0 | 0.00 | 0.00 | 0.00 | 73 | 1020.7 |
| 20260503201129 | 59 | 148 | 4.0 | 7.0 | 0.00 | 0.00 | 0.00 | 73 | 1020.6 |
| 20260503200631 | 59 | 178 | 2.0 | 5.0 | 0.00 | 0.00 | 0.00 | 73 | 1020.6 |
| 20260503200125 | 59 | 173 | 3.0 | 6.0 | 0.00 | 0.00 | 0.00 | 73 | 1020.6 |
| 20260503195628 | 59 | 130 | 2.0 | 5.0 | 0.00 | 0.00 | 0.00 | 73 | 1020.6 |
| 20260503195125 | 59 | 145 | 3.0 | 7.0 | 0.00 | 0.00 | 0.00 | 73 | 1020.6 |
| 20260503194631 | 60 | 119 | 3.0 | 8.0 | 0.00 | 0.00 | 0.00 | 73 | 1020.6 |
| 20260503194125 | 60 | 150 | 1.0 | 8.0 | 0.00 | 0.00 | 0.00 | 73 | 1020.6 |
| 20260503193625 | 60 | 82 | 1.0 | 6.0 | 0.00 | 0.00 | 0.00 | 74 | 1020.6 |
| 20260503193128 | 60 | 138 | 0.0 | 6.0 | 0.00 | 0.00 | 0.00 | 74 | 1020.6 |
| 20260503192629 | 60 | 107 | 2.0 | 5.0 | 0.00 | 0.00 | 0.00 | 74 | 1020.5 |
| 20260503192131 | 60 | 156 | 2.0 | 8.0 | 0.00 | 0.00 | 0.00 | 74 | 1020.5 |
| 20260503191625 | 60 | 157 | 3.0 | 7.0 | 0.00 | 0.00 | 0.00 | 76 | 1020.5 |
| 20260503191125 | 60 | 124 | 0.0 | 6.0 | 0.00 | 0.00 | 0.00 | 76 | 1020.5 |
| 20260503190625 | 61 | 127 | 5.0 | 7.0 | 0.00 | 0.00 | 0.00 | 77 | 1020.5 |
| 20260503190131 | 61 | 167 | 2.0 | 6.0 | 0.00 | 0.00 | 0.00 | 77 | 1020.5 |
| 20260503185628 | 62 | 159 | 1.0 | 5.0 | 0.00 | 0.00 | 0.00 | 77 | 1020.4 |
| 20260503185128 | 62 | 175 | 0.0 | 3.0 | 0.00 | 0.00 | 0.00 | 77 | 1020.3 |
| 20260503184625 | 62 | 138 | 0.0 | 4.0 | 0.00 | 0.00 | 0.00 | 76 | 1020.2 |
| 20260503184125 | 63 | 146 | 4.0 | 5.0 | 0.00 | 0.00 | 0.00 | 75 | 1020.1 |
| 20260503183625 | 64 | 179 | 2.0 | 3.0 | 0.00 | 0.00 | 0.00 | 74 | 1020.1 |
| 20260503183128 | 64 | 147 | 0.0 | 0.0 | 0.00 | 0.00 | 0.00 | 74 | 1020.0 |
| 20260503182631 | 64 | 192 | 0.0 | 0.0 | 0.00 | 0.00 | 0.00 | 74 | 1020.0 |
| 20260503182128 | 64 | 192 | 0.0 | 2.0 | 0.00 | 0.00 | 0.00 | 73 | 1019.9 |
| 20260503181626 | 64 | 302 | 0.0 | 2.0 | 0.00 | 0.00 | 0.00 | 73 | 1019.9 |
| 20260503181128 | 64 | 302 | 0.0 | 0.0 | 0.00 | 0.00 | 0.00 | 72 | 1019.9 |
| 20260503180628 | 64 | 316 | 0.0 | 2.0 | 0.00 | 0.00 | 0.00 | 72 | 1019.8 |
| 20260503180125 | 64 | 316 | 0.0 | 3.0 | 0.00 | 0.00 | 0.00 | 71 | 1019.8 |
| 20260503175631 | 64 | 316 | 0.0 | 3.0 | 0.00 | 0.00 | 0.00 | 70 | 1019.7 |
| 20260503175128 | 64 | 325 | 1.0 | 2.0 | 0.00 | 0.00 | 0.00 | 70 | 1019.6 |
| 20260503174625 | 65 | 333 | 0.0 | 3.0 | 0.00 | 0.00 | 0.00 | 70 | 1019.6 |
| 20260503174128 | 65 | 341 | 3.0 | 4.0 | 0.00 | 0.00 | 0.00 | 70 | 1019.6 |
| 20260503173631 | 65 | 279 | 2.0 | 4.0 | 0.00 | 0.00 | 0.00 | 69 | 1019.7 |
| 20260503173128 | 65 | 288 | 0.0 | 5.0 | 0.00 | 0.00 | 0.00 | 69 | 1019.7 |
| 20260503172631 | 66 | 294 | 4.0 | 4.0 | 0.00 | 0.00 | 0.00 | 68 | 1019.7 |
| 20260503172128 | 66 | 263 | 2.0 | 5.0 | 0.00 | 0.00 | 0.00 | 68 | 1019.7 |
| 20260503171625 | 67 | 300 | 3.0 | 5.0 | 0.00 | 0.00 | 0.00 | 67 | 1019.6 |
| 20260503171128 | 67 | 296 | 3.0 | 5.0 | 0.00 | 0.00 | 0.00 | 67 | 1019.6 |
| 20260503170634 | 67 | 284 | 4.0 | 6.0 | 0.00 | 0.00 | 0.00 | 67 | 1019.6 |
| 20260503170125 | 67 | 234 | 1.0 | 5.0 | 0.00 | 0.00 | 0.00 | 67 | 1019.5 |
| 20260503160125 | 68 | 293 | 2.0 | 8.0 | 0.00 | 0.00 | 0.00 | 66 | 1019.7 |
| 20260503150625 | 69 | 255 | 5.0 | 6.0 | 0.00 | 0.00 | 0.00 | 63 | 1019.9 |
| 20260503150125 | 69 | 251 | 1.0 | 8.0 | 0.00 | 0.00 | 0.00 | 63 | 1019.9 |
| 20260503140128 | 68 | 231 | 0.0 | 10.0 | 0.00 | 0.00 | 0.00 | 64 | 1020.3 |
| 20260503131125 | 69 | 279 | 7.0 | 14.0 | 0.00 | 0.00 | 0.00 | 60 | 1020.5 |
| 20260503130635 | 69 | 271 | 7.0 | 12.0 | 0.00 | 0.00 | 0.00 | 62 | 1020.6 |
| 20260503130132 | 68 | 30 | 2.0 | 9.0 | 0.00 | 0.00 | 0.00 | 61 | 1020.5 |
| 20260503120129 | 68 | 260 | 10.0 | 14.0 | 0.00 | 0.00 | 0.00 | 61 | 1021.0 |
| 20260503110626 | 68 | 284 | 5.0 | 10.0 | 0.00 | 0.00 | 0.00 | 61 | 1021.2 |
| 20260503110126 | 68 | 266 | 4.0 | 10.0 | 0.00 | 0.00 | 0.00 | 61 | 1021.3 |
| 20260503100126 | 67 | 273 | 10.0 | 17.0 | 0.00 | 0.00 | 0.00 | 61 | 1021.7 |
| 20260503090129 | 67 | 292 | 6.0 | 14.0 | 0.00 | 0.00 | 0.00 | 57 | 1021.8 |
| 20260503081626 | 67 | 269 | 5.0 | 9.0 | 0.00 | 0.00 | 0.00 | 55 | 1021.6 |
| 20260503081129 | 66 | 263 | 0.0 | 8.0 | 0.00 | 0.00 | 0.00 | 56 | 1021.6 |
| 20260503080629 | 66 | 277 | 6.0 | 10.0 | 0.00 | 0.00 | 0.00 | 55 | 1021.6 |
| 20260503080133 | 66 | 311 | 4.0 | 10.0 | 0.00 | 0.00 | 0.00 | 55 | 1021.5 |
| 20260503072632 | 65 | 342 | 4.0 | 6.0 | 0.00 | 0.00 | 0.00 | 57 | 1021.4 |
| 20260503072126 | 65 | 256 | 4.0 | 8.0 | 0.00 | 0.00 | 0.00 | 57 | 1021.4 |
| 20260503071632 | 64 | 236 | 1.0 | 9.0 | 0.00 | 0.00 | 0.00 | 57 | 1021.5 |
| 20260503071126 | 64 | 232 | 5.0 | 7.0 | 0.00 | 0.00 | 0.00 | 58 | 1021.4 |
| 20260503070626 | 64 | 228 | 2.0 | 7.0 | 0.00 | 0.00 | 0.00 | 57 | 1021.4 |
| 20260503070126 | 64 | 298 | 3.0 | 8.0 | 0.00 | 0.00 | 0.00 | 58 | 1021.4 |
| 20260503060129 | 60 | 134 | 2.0 | 4.0 | 0.00 | 0.00 | 0.00 | 68 | 1021.3 |
| 20260503054626 | 59 | 161 | 4.0 | 4.0 | 0.00 | 0.00 | 0.00 | 69 | 1021.3 |
| 20260503054129 | 59 | 144 | 0.0 | 3.0 | 0.00 | 0.00 | 0.00 | 70 | 1021.2 |
| 20260503053629 | 58 | 196 | 0.0 | 2.0 | 0.00 | 0.00 | 0.00 | 71 | 1021.2 |
| 20260503053129 | 58 | 169 | 0.0 | 4.0 | 0.00 | 0.00 | 0.00 | 71 | 1021.2 |
| 20260503052626 | 57 | 173 | 0.0 | 4.0 | 0.00 | 0.00 | 0.00 | 72 | 1021.1 |
| 20260503052129 | 57 | 171 | 0.0 | 3.0 | 0.00 | 0.00 | 0.00 | 73 | 1021.1 |
| 20260503051626 | 56 | 161 | 0.0 | 6.0 | 0.00 | 0.00 | 0.00 | 73 | 1021.0 |
| 20260503051136 | 56 | 188 | 3.0 | 8.0 | 0.00 | 0.00 | 0.00 | 73 | 1021.0 |
| 20260503050626 | 56 | 155 | 3.0 | 5.0 | 0.00 | 0.00 | 0.00 | 74 | 1020.9 |
| 20260503050126 | 56 | 152 | 3.0 | 6.0 | 0.00 | 0.00 | 0.00 | 74 | 1020.9 |
| 20260503045629 | 55 | 140 | 6.0 | 7.0 | 0.00 | 0.00 | 0.00 | 74 | 1020.9 |
| 20260503045126 | 55 | 157 | 1.0 | 5.0 | 0.00 | 0.00 | 0.00 | 74 | 1020.9 |
| 20260503044629 | 55 | 171 | 4.0 | 5.0 | 0.00 | 0.00 | 0.00 | 74 | 1020.8 |
| 20260503044129 | 55 | 166 | 0.0 | 5.0 | 0.00 | 0.00 | 0.00 | 75 | 1020.8 |
| 20260503043626 | 55 | 148 | 1.0 | 6.0 | 0.00 | 0.00 | 0.00 | 75 | 1020.8 |
| 20260503043129 | 54 | 182 | 3.0 | 7.0 | 0.00 | 0.00 | 0.00 | 75 | 1020.8 |
| 20260503042626 | 54 | 173 | 4.0 | 6.0 | 0.00 | 0.00 | 0.00 | 75 | 1020.8 |
| 20260503042126 | 54 | 178 | 1.0 | 7.0 | 0.00 | 0.00 | 0.00 | 75 | 1020.7 |
| 20260503041626 | 54 | 157 | 4.0 | 7.0 | 0.00 | 0.00 | 0.00 | 75 | 1020.7 |
| 20260503041129 | 54 | 171 | 3.0 | 7.0 | 0.00 | 0.00 | 0.00 | 74 | 1020.6 |
| 20260503040629 | 54 | 171 | 1.0 | 8.0 | 0.00 | 0.00 | 0.00 | 74 | 1020.6 |
| 20260503040129 | 54 | 178 | 2.0 | 5.0 | 0.00 | 0.00 | 0.00 | 74 | 1020.6 |
| 20260503035629 | 54 | 207 | 1.0 | 5.0 | 0.00 | 0.00 | 0.00 | 74 | 1020.5 |
| 20260503035129 | 54 | 171 | 2.0 | 6.0 | 0.00 | 0.00 | 0.00 | 73 | 1020.5 |
| 20260503034629 | 54 | 186 | 3.0 | 5.0 | 0.00 | 0.00 | 0.00 | 73 | 1020.5 |
| 20260503034129 | 54 | 144 | 4.0 | 6.0 | 0.00 | 0.00 | 0.00 | 73 | 1020.4 |
| 20260503033629 | 54 | 109 | 3.0 | 6.0 | 0.00 | 0.00 | 0.00 | 74 | 1020.5 |
| 20260503033130 | 54 | 138 | 4.0 | 6.0 | 0.00 | 0.00 | 0.00 | 73 | 1020.6 |
| 20260503032626 | 54 | 194 | 1.0 | 6.0 | 0.00 | 0.00 | 0.00 | 74 | 1020.5 |
| 20260503032133 | 54 | 171 | 2.0 | 7.0 | 0.00 | 0.00 | 0.00 | 73 | 1020.6 |
| 20260503031626 | 54 | 157 | 2.0 | 8.0 | 0.00 | 0.00 | 0.00 | 73 | 1020.6 |
| 20260503031132 | 54 | 171 | 5.0 | 6.0 | 0.00 | 0.00 | 0.00 | 73 | 1020.6 |
| 20260503030629 | 54 | 157 | 2.0 | 7.0 | 0.00 | 0.00 | 0.00 | 73 | 1020.6 |
| 20260503030126 | 54 | 142 | 0.0 | 5.0 | 0.00 | 0.00 | 0.00 | 73 | 1020.6 |